Stations météo

réclame
Mon MeteoGroup
Manston, Grande-Bretagne (3797): Température de l'air & dewpoint: 14.10.2017 08:00:00 - 20.10.2017 08:00:00 (BST)Manston, Grande-Bretagne (3797): Température de l'air -20cm & Température de l'air -100cm: 14.10.2017 08:00:00 - 20.10.2017 08:00:00 (BST)Manston, Grande-Bretagne (3797): Vitesse du vent & gusts: 14.10.2017 08:00:00 - 20.10.2017 08:00:00 (BST)Manston, Grande-Bretagne (3797): Direction du vent: 14.10.2017 08:00:00 - 20.10.2017 08:00:00 (BST)Manston, Grande-Bretagne (3797): reduced air pressure: 14.10.2017 08:00:00 - 20.10.2017 08:00:00 (BST)Manston, Grande-Bretagne (3797): visibility: 14.10.2017 08:00:00 - 20.10.2017 08:00:00 (BST)Manston, Grande-Bretagne (3797): Ensoleillement: 14.10.2017 08:00:00 - 20.10.2017 08:00:00 (BST)Manston, Grande-Bretagne (3797): Quantités de précipitations: 14.10.2017 08:00:00 - 20.10.2017 08:00:00 (BST)
Date & Time tt [°C] td [°C] tt -20cm [°C] tt -100cm [°C] ff [km/h] ff [knt] fx [km/h] fx [knt] dd ppp [hPa] vv [km] sd [min] rr [mm]
20.10.2017 08:00:00 - - - - - - - - - - - - -
20.10.2017 07:00:00 12,7 11,1 - - 35 19 54 29 SSW 1000,6 5 0 0,0
20.10.2017 06:00:00 12,3 11,2 - - 31 17 55 30 SSW 1000,5 12 0 0,0
20.10.2017 05:00:00 12,4 9,8 - - 34 18 65 35 SSW 1000,7 16 0 0,0
20.10.2017 04:00:00 12,4 10,3 - - 28 15 - - SSW 1000,8 12 0 0,0
20.10.2017 03:00:00 12,8 10,9 - - 24 13 48 26 SSW 1001,3 20 0 0,2
20.10.2017 02:00:00 13,3 12,0 - - 39 21 57 31 SSW 1001,1 8 0 2,0
20.10.2017 01:00:00 13,6 12,8 - - 41 22 70 38 S 1001,0 6 - 0,8
20.10.2017 00:00:00 14,9 13,4 - - 34 18 48 26 SSW 1001,6 12 0 0,0
19.10.2017 23:00:00 16,0 13,6 - - 31 17 46 25 S 1001,8 21 0 0,2
19.10.2017 22:00:00 15,9 14,1 - - 26 14 - - S 1002,6 29 0 0,4
19.10.2017 21:00:00 15,9 14,7 - - 21 11 - - S 1002,8 3,5 0 0,8
19.10.2017 20:00:00 15,5 14,5 - - 21 11 46 25 S 1003,3 21 0 2,4
19.10.2017 19:00:00 16,5 13,8 - - 22 12 - - S 1003,7 30 0 0,0
19.10.2017 18:00:00 16,5 14,0 - - 29 16 - - S 1003,7 30 0 0,0
19.10.2017 17:00:00 17,3 14,2 - - 26 14 48 26 S 1003,8 18 0 0,0
19.10.2017 16:00:00 17,7 14,3 - - 34 18 52 28 SSW 1003,9 23 0 0,0
19.10.2017 15:00:00 18,0 14,1 - - 28 15 - - S 1003,8 23 18 0,0
19.10.2017 14:00:00 19,0 14,1 - - 28 15 - - S 1004,1 26 30 0,0
19.10.2017 13:00:00 17,6 13,5 - - 24 13 - - S 1005,0 23 0 0,0
19.10.2017 12:00:00 16,8 13,6 - - 26 14 - - SSE 1005,5 25 0 0,0
19.10.2017 11:00:00 15,6 14,0 - - 21 11 - - SE 1005,8 9 0 0,0
19.10.2017 10:00:00 15,4 13,8 13,9 14,2 21 11 - - ESE 1006,6 10 6 0,0
19.10.2017 09:00:00 15,0 14,1 - - 21 11 - - ESE 1007,1 7 0 0,0
19.10.2017 08:00:00 14,5 14,1 - - 15 8 - - SE 1007,4 4,8 0 0,0
19.10.2017 07:00:00 14,1 14,0 - - 15 8 - - SE 1007,6 3,1 0 0,0
19.10.2017 06:00:00 14,6 14,5 - - 15 8 - - SE 1008,1 2,6 0 0,0
19.10.2017 05:00:00 13,6 13,6 - - 9 5 - - SE 1008,4 2,0 0 0,0
19.10.2017 04:00:00 13,6 13,6 - - 11 6 - - SSE 1009,1 2,1 0 0,0
19.10.2017 03:00:00 14,5 14,4 - - 13 7 - - SSE 1009,6 1,4 0 0,0
19.10.2017 02:00:00 14,0 14,0 - - 13 7 - - SE 1009,8 0,2 0 0,0
19.10.2017 01:00:00 13,9 13,8 - - 13 7 - - SE 1010,2 0,2 - 0,0
19.10.2017 00:00:00 13,7 13,5 - - 8 4 - - SSE 1010,8 0,1 0 0,0
18.10.2017 23:00:00 13,9 13,7 - - 9 5 - - SE 1010,6 2,2 0 0,0
18.10.2017 22:00:00 14,3 13,9 - - 9 5 - - ESE 1010,8 2,7 0 0,0
18.10.2017 21:00:00 15,4 14,6 - - 5 3 - - SSW 1011,2 3,9 0 0,0
18.10.2017 20:00:00 15,4 14,6 - - 9 5 - - S 1011,4 4,4 0 0,0
18.10.2017 19:00:00 15,1 14,6 - - 9 5 - - S 1011,1 4,7 0 0,0
18.10.2017 18:00:00 15,6 14,2 - - 9 5 - - SSE 1010,4 7 0 0,0
18.10.2017 17:00:00 16,6 15,0 - - 9 5 - - S 1010,5 7 0 0,0
18.10.2017 16:00:00 16,2 14,7 - - 13 7 - - S 1010,7 6 0 0,0
18.10.2017 15:00:00 15,9 14,4 - - 15 8 - - S 1010,9 6 0 0,0
18.10.2017 14:00:00 15,1 14,9 - - 13 7 - - SE 1011,1 2,5 0 0,0
18.10.2017 13:00:00 14,5 14,3 - - 15 8 - - SSE 1011,7 1,4 0 0,2
18.10.2017 12:00:00 14,3 14,0 - - 15 8 - - SE 1012,1 0,8 0 0,0
18.10.2017 11:00:00 14,6 13,6 - - 18 10 - - ESE 1012,1 3,0 0 0,0
18.10.2017 10:00:00 14,9 13,5 13,5 14,2 16 9 - - E 1012,0 4,1 0 0,0
18.10.2017 09:00:00 15,0 13,1 - - 24 13 - - ESE 1012,2 6 0 0,0
18.10.2017 08:00:00 14,7 12,8 - - 22 12 - - E 1012,3 9 0 0,0
18.10.2017 07:00:00 14,6 12,6 - - 22 12 - - E 1012,4 11 0 0,0
18.10.2017 06:00:00 14,4 12,0 - - 16 9 - - ENE 1012,8 13 0 0,0
18.10.2017 05:00:00 14,2 10,9 - - 11 6 - - NE 1013,6 14 - 0,0
18.10.2017 04:00:00 14,0 9,9 - - 13 7 - - NE 1014,0 21 0 0,0
18.10.2017 03:00:00 14,1 10,7 - - 9 5 - - NE 1014,7 16 0 0,0
18.10.2017 02:00:00 13,8 11,3 - - 9 5 - - NE 1015,0 13 0 0,0
18.10.2017 01:00:00 13,3 11,2 - - 2 1 - - NE 1015,6 13 - 0,0
18.10.2017 00:00:00 12,7 10,8 - - 4 2 - - NE 1016,3 13 0 0,0
17.10.2017 23:00:00 11,0 9,3 - - 8 4 - - E 1016,5 12 0 0,0
17.10.2017 22:00:00 10,7 8,4 - - 9 5 - - E 1017,3 10 0 0,0
17.10.2017 21:00:00 10,1 7,7 - - 11 6 - - ESE 1017,2 12 0 0,0
17.10.2017 20:00:00 13,1 8,6 - - 0 0 - - N 1017,9 15 0 0,0
17.10.2017 19:00:00 13,2 7,9 - - 0 0 - - N 1018,1 17 0 0,0
17.10.2017 18:00:00 12,7 8,1 - - 0 0 - - N 1018,2 15 0 0,0
17.10.2017 17:00:00 13,7 7,8 - - 8 4 - - NW 1018,5 16 0 0,0
17.10.2017 16:00:00 14,7 8,3 - - 11 6 - - WSW 1018,7 18 12 0,0
17.10.2017 15:00:00 15,2 8,6 - - 16 9 - - W 1019,4 15 48 0,0
17.10.2017 14:00:00 14,5 8,5 - - 15 8 - - SW 1020,1 19 0 0,0
17.10.2017 13:00:00 14,0 7,8 - - 13 7 - - WSW 1021,0 18 0 0,0
17.10.2017 12:00:00 13,4 8,3 - - 15 8 - - SW 1021,4 15 0 0,0
17.10.2017 11:00:00 13,3 8,8 - - 13 7 - - SW 1021,4 14 0 0,0
17.10.2017 10:00:00 12,2 8,8 14,0 14,2 9 5 - - SSW 1021,2 15 0 0,0
17.10.2017 09:00:00 10,7 7,6 - - 9 5 - - SSW 1021,5 14 0 0,0
17.10.2017 08:00:00 10,4 8,0 - - 13 7 - - SW 1021,0 13 0 0,0
17.10.2017 07:00:00 11,0 8,4 - - 13 7 - - SSW 1020,7 12 0 0,0
17.10.2017 06:00:00 11,0 8,2 - - 8 4 - - SSW 1020,6 12 0 0,0
17.10.2017 05:00:00 10,9 8,1 - - 9 5 - - SSW 1020,2 12 0 0,0
17.10.2017 04:00:00 11,6 8,6 - - 15 8 - - SW 1020,0 12 0 0,0
17.10.2017 03:00:00 11,9 8,3 - - 13 7 - - WSW 1020,2 11 0 0,0
17.10.2017 02:00:00 13,0 8,7 - - 21 11 - - SW 1020,3 11 0 0,0
17.10.2017 01:00:00 13,5 9,0 - - 22 12 - - SW 1020,2 12 - 0,0
17.10.2017 00:00:00 13,9 9,2 - - 24 13 - - SW 1019,8 12 0 0,0
16.10.2017 23:00:00 14,3 9,5 - - 22 12 48 26 SW 1019,8 12 0 0,0
16.10.2017 22:00:00 15,1 10,7 - - 28 15 46 25 SW 1019,3 12 0 0,0
16.10.2017 21:00:00 15,9 10,0 - - 35 19 52 28 SW 1018,4 14 0 0,0
16.10.2017 20:00:00 16,3 10,4 - - 29 16 - - SW 1018,3 14 0 0,0
16.10.2017 19:00:00 16,9 11,4 - - 24 13 - - SW 1017,9 13 0 -
16.10.2017 18:00:00 18,3 15,0 - - 29 16 - - SW 1017,1 12 0 0,0
16.10.2017 17:00:00 19,2 15,2 - - 24 13 - - SW 1016,4 16 0 0,0
16.10.2017 16:00:00 20,8 15,6 - - 28 15 - - SSW 1016,3 19 0 0,0
16.10.2017 15:00:00 20,9 14,9 - - 28 15 52 28 SSW 1016,3 22 18 0,0
16.10.2017 14:00:00 22,3 14,4 - - 34 18 57 31 SSW 1016,1 23 48 0,0
16.10.2017 13:00:00 23,2 14,3 - - 37 20 50 27 S 1016,5 26 36 0,0
16.10.2017 12:00:00 19,7 16,1 - - 22 12 - - SE 1016,9 19 0 0,0
16.10.2017 11:00:00 18,2 15,7 - - 24 13 - - SE 1017,0 10 18 0,0
16.10.2017 10:00:00 17,6 15,2 14,5 14,0 16 9 - - SE 1017,6 14 6 0,0
16.10.2017 09:00:00 17,4 15,5 - - 22 12 - - SE 1017,4 14 0 0,0
16.10.2017 08:00:00 17,3 15,7 - - 18 10 - - SE 1017,5 17 0 0,0
16.10.2017 07:00:00 16,9 15,3 - - 15 8 - - SSE 1017,6 11 0 0,0
16.10.2017 06:00:00 18,2 15,5 - - 16 9 - - S 1017,5 16 0 0,0
16.10.2017 05:00:00 18,1 15,5 - - 18 10 - - S 1017,4 17 0 0,0
16.10.2017 04:00:00 17,8 15,3 - - 16 9 - - S 1017,5 17 0 0,0
16.10.2017 03:00:00 18,4 15,4 - - 22 12 - - S 1017,6 21 0 0,0
16.10.2017 02:00:00 18,1 15,5 - - 16 9 - - S 1017,9 20 - 0,0
16.10.2017 01:00:00 18,0 15,5 - - 16 9 - - S 1018,0 21 - 0,0
16.10.2017 00:00:00 16,9 14,9 - - 15 8 - - S 1018,0 14 0 0,0
15.10.2017 23:00:00 15,3 14,4 - - 15 8 - - SSE 1018,3 6 0 0,0
15.10.2017 22:00:00 14,7 14,2 - - 13 7 - - SSE 1018,4 2,9 0 0,0
15.10.2017 21:00:00 14,6 13,7 - - 15 8 - - SSE 1018,4 6 0 0,0
15.10.2017 20:00:00 14,7 13,1 - - 11 6 - - S 1018,5 9 0 0,0
15.10.2017 19:00:00 15,6 13,7 - - 16 9 - - SSW 1018,4 10 0 0,0
15.10.2017 18:00:00 16,8 13,7 - - 24 13 - - SSW 1018,0 13 0 0,0
15.10.2017 17:00:00 17,5 14,0 - - 26 14 - - SSW 1017,9 11 48 0,0
15.10.2017 16:00:00 17,7 14,0 - - 28 15 - - SSW 1018,0 10 48 0,0
15.10.2017 15:00:00 18,0 14,4 - - 29 16 - - SSW 1018,2 12 54 0,0
15.10.2017 14:00:00 20,0 15,3 - - 22 12 - - S 1018,3 20 60 0,0
15.10.2017 13:00:00 20,6 15,4 - - 22 12 - - SSW 1018,6 24 60 0,0
15.10.2017 12:00:00 19,5 14,8 - - 26 14 - - SSW 1019,1 24 60 0,0
15.10.2017 11:00:00 18,9 14,5 - - 22 12 - - SSW 1019,3 20 60 0,0
15.10.2017 10:00:00 17,6 15,0 13,9 14,0 15 8 - - S 1019,6 21 60 0,0
15.10.2017 09:00:00 15,7 14,1 - - 9 5 - - S 1019,6 14 48 0,0
15.10.2017 08:00:00 14,2 13,5 - - 16 9 - - SE 1019,7 14 0 0,0
15.10.2017 07:00:00 13,6 12,8 - - 16 9 - - SSE 1020,0 10 0 0,0
15.10.2017 06:00:00 13,7 12,8 - - 16 9 - - SSE 1020,4 9 0 0,0
15.10.2017 05:00:00 14,0 13,2 - - 16 9 - - SSE 1020,7 9 0 0,0
15.10.2017 04:00:00 14,4 14,0 - - 18 10 - - SSE 1020,9 5 0 0,2
15.10.2017 03:00:00 14,2 14,1 - - 15 8 - - SSE 1021,5 2,1 0 0,0
15.10.2017 02:00:00 14,3 14,3 - - 16 9 - - SE 1022,2 2,5 0 0,0
15.10.2017 01:00:00 13,4 13,4 - - 15 8 - - SSE 1022,7 3,0 - 0,0
15.10.2017 00:00:00 13,2 13,1 - - 13 7 - - SE 1023,0 0,1 0 0,0
14.10.2017 23:00:00 13,6 13,5 - - 15 8 - - SSE 1023,3 0,1 0 0,0
14.10.2017 22:00:00 12,6 12,5 - - 13 7 - - SSE 1024,0 0,1 0 0,0
14.10.2017 21:00:00 12,9 12,7 - - 8 4 - - S 1024,3 2,0 0 0,0
14.10.2017 20:00:00 13,7 13,3 - - 9 5 - - S 1024,7 3,7 0 0,0
14.10.2017 19:00:00 14,8 13,9 - - 11 6 - - S 1024,9 8 0 0,0
14.10.2017 18:00:00 16,8 13,9 - - 9 5 - - SSW 1024,7 29 42 0,0
14.10.2017 17:00:00 18,8 13,9 - - 16 9 - - SW 1024,6 30 60 0,0
14.10.2017 16:00:00 19,2 14,5 - - 18 10 - - SSW 1024,7 20 48 0,0
14.10.2017 15:00:00 19,4 14,7 - - 18 10 - - SW 1024,8 26 6 0,0
14.10.2017 14:00:00 19,4 14,8 - - 21 11 - - SSW 1024,9 25 60 0,0
14.10.2017 13:00:00 19,5 14,7 - - 26 14 - - SSW 1025,0 24 60 0,0
14.10.2017 12:00:00 18,8 14,6 - - 26 14 - - SW 1025,6 23 54 0,0
14.10.2017 11:00:00 18,0 14,8 - - 26 14 - - SW 1025,5 25 60 0,0
14.10.2017 10:00:00 17,2 14,7 13,7 14,0 18 10 - - SSW 1025,3 45 60 0,0
14.10.2017 09:00:00 15,2 14,2 - - 13 7 - - S 1025,2 12 54 0,2
14.10.2017 08:00:00 14,2 13,7 - - 9 5 - - SW 1025,2 14 6 0,0

tt = Température de l'air
td = dewpoint
tt -20cm = Température de l'air -20cm
tt -100cm = Température de l'air -100cm
ff = Vitesse du vent
fx = gusts
dd = Direction du vent
ppp = reduced air pressure
vv = visibility
sd = Ensoleillement
rr = Quantités de précipitations

stations d'obs. à proximité